Find Starlink 35179

NORAD ID: 66066 Int'l Des: 2025-235 Owner: SPXS Country: US Constellation: starlink operational
LEOCIRCULAR

現在のビュー

3D地球を読み込み中...

About Starlink 35179

Starlink 35179 (NORAD 66066) is a starlink constellation satellite (v2 mini) launched Oct 19, 2025 by SPXS of US. It operates in LEO, CIRCULAR orbit with a mass of 575.00 kg.

次回通過

Passes for default location (London). Set your location on the main map for personalized predictions.

高度履歴

Loading altitude history...

軌道要素

1 66066U 25235J 26263.92155768 .00014501 00000-0 43948-3 0 9995
2 66066 53.1585 57.6415 0000873 85.9183 274.1920 15.34400400 52826
Epoch: Sep 20, 2026 • Age: 8 hours

現在のステータス

高度 479.8 km
遠地点 / 近地点 N/A
速度 7.63 km/s
衛星直下点 -48.27°S, 85.12°W
打ち上げ日 Oct 19, 2025
運用期間 0.9 years
タイプ internet

技術仕様

分類 Payload
質量 575.00 kg
乾燥質量 530.00 kg
長さ 0.30 m
スパン 29.00 m
形状 ? Box + pan
製造者 SPXS
バスタイプ Starlink V2MO
フェーズステータス In Orbit
所有者/国 SPXS/US

Most Searched